K7OLI-13 Weather Reports


time (UTC)temp
C
wind
direction
speed
KPH
gust
KPH
rain 1hr
cm
rain 24hr
cm
rain mn
cm
humidity
%
barometer
mb
20260904173524 16 7 3.2 6.4 0.00 1.02 0.41 81
20260904172533 16 74 1.6 4.8 0.00 1.02 0.41 81
20260904171602 16 113 1.6 3.2 0.00 1.09 0.41 83
20260904170530 16 20 1.6 3.2 0.00 1.14 0.41 84
20260904165520 16 349 0.0 4.8 0.00 1.17 0.41 85
20260904164527 16 311 3.2 6.4 0.00 1.19 0.41 87
20260904163558 15 8 3.2 4.8 0.00 1.19 0.41 88
20260904162527 15 3 4.8 6.4 0.00 1.19 0.41 88
20260904161532 15 61 3.2 6.4 0.00 1.19 0.41 89
20260904160522 15 351 4.8 9.7 0.05 1.22 0.41 92
20260904155550 13 24 6.4 8.0 0.08 1.22 0.41 96
20260904154519 13 45 4.8 9.7 0.08 1.22 0.41 98
20260904153527 12 24 6.4 8.0 0.08 1.22 0.41 99
20260904152535 12 353 3.2 4.8 0.08 1.22 0.41 99
20260904151524 12 304 1.6 4.8 0.08 1.22 0.41 99
20260904150556 12 296 1.6 4.8 0.03 1.17 0.36 99
20260904145522 12 256 1.6 3.2 0.00 1.14 0.33 99
20260904144530 12 158 0.0 3.2 0.03 1.14 0.33 99
20260904143520 12 292 1.6 4.8 0.03 1.14 0.33 99
20260904142527 12 250 1.6 4.8 0.03 1.14 0.33 99
20260904141535 11 8 1.6 4.8 0.03 1.14 0.33 99
20260904140527 11 0.0 0.0 0.03 1.14 0.33 99
20260904135536 11 0.0 0.0 0.03 1.19 0.33 99
20260904134522 11 0.0 0.0 0.00 1.19 0.30 99
20260904133532 11 0.0 0.0 0.00 1.22 0.30 99
20260904132540 11 0.0 0.0 0.00 1.27 0.30 99
20260904131549 11 0.0 0.0 0.00 1.30 0.30 99
20260904130536 11 0.0 0.0 0.00 1.30 0.30 99
20260904125527 11 0.0 0.0 0.00 1.30 0.30 99
20260904124537 11 0.0 0.0 0.00 1.30 0.30 99
20260904123523 11 0.0 0.0 0.00 1.30 0.30 99
20260904122531 11 0.0 0.0 0.00 1.30 0.30 99
20260904121521 11 286 1.6 3.2 0.00 1.30 0.30 99
20260904120528 11 270 1.6 3.2 0.00 1.30 0.30 99
20260904115536 11 293 1.6 3.2 0.00 1.30 0.30 99
20260904114528 11 0.0 0.0 0.00 1.30 0.30 99
20260904113534 11 293 0.0 3.2 0.00 1.30 0.30 99
20260904112523 12 168 1.6 3.2 0.03 1.30 0.30 99
20260904111533 12 55 0.0 4.8 0.05 1.30 0.30 99
20260904110521 12 35 3.2 4.8 0.05 1.30 0.30 99
20260904105529 12 0.0 1.6 0.08 1.30 0.30 99
20260904104537 12 353 3.2 4.8 0.08 1.30 0.30 99
20260904103527 11 338 0.0 3.2 0.08 1.30 0.30 99
20260904102534 12 0.0 0.0 0.05 1.27 0.28 99
20260904101524 12 0.0 1.6 0.05 1.24 0.25 99
20260904100532 12 45 0.0 3.2 0.08 1.24 0.25 99
20260904095522 12 68 3.2 6.4 0.10 1.22 0.23 99
20260904094530 12 35 4.8 6.4 0.13 1.22 0.23 99
20260904093537 12 23 6.4 8.0 0.18 1.22 0.23 99
20260904092528 12 35 1.6 3.2 0.20 1.22 0.23 99
20260904091535 12 0.0 0.0 0.20 1.19 0.20 99
20260904090544 12 0.0 0.0 0.18 1.17 0.18 99
20260904085532 12 12 1.6 4.8 0.13 1.12 0.13 99
20260904084521 12 40 4.8 6.4 0.10 1.09 0.10 99
20260904083529 12 32 4.8 6.4 0.05 1.04 0.05 99
20260904082519 12 0.0 0.0 0.03 1.02 0.03 99
20260904081527 12 0.0 0.0 0.00 0.99 0.00 99
20260904080535 12 0.0 0.0 0.00 0.99 0.00 99
20260904075545 12 0.0 0.0 0.00 0.99 0.00 99
20260904074533 12 0.0 0.0 0.00 0.99 0.00 99
20260904073542 12 0.0 0.0 0.00 0.99 0.00 99
20260904072533 12 0.0 0.0 0.00 0.99 0.00 99
20260904071519 12 0.0 0.0 0.00 0.99 0.00 99
20260904070527 12 0.0 0.0 0.00 0.99 0.00 99
20260904065535 12 0.0 0.0 0.00 0.99 0.99 99
20260904064527 12 0.0 0.0 0.00 0.99 0.99 99
20260904063533 12 0.0 0.0 0.00 0.99 0.99 99
20260904062522 12 0.0 0.0 0.00 0.99 0.99 99
20260904061530 12 0.0 0.0 0.00 0.99 0.99 99
20260904060539 12 0.0 0.0 0.00 0.99 0.99 99
20260904055527 12 0.0 0.0 0.00 1.02 0.99 99
20260904054556 12 0.0 0.0 0.00 1.02 0.99 99
20260904053527 12 0.0 0.0 0.00 1.02 0.99 99
20260904052533 12 0.0 0.0 0.00 1.02 0.99 99
20260904051523 12 0.0 0.0 0.00 1.04 0.99 99
20260904050531 12 225 0.0 3.2 0.00 1.04 0.99 98
20260904045520 12 229 1.6 3.2 0.00 1.04 0.99 98
20260904044528 12 70 1.6 4.8 0.00 1.04 0.99 97
20260904043557 12 78 3.2 4.8 0.00 1.04 0.99 97
20260904042548 12 66 4.8 6.4 0.03 1.04 0.99 97
20260904041533 12 51 4.8 6.4 0.03 1.04 0.99 97
20260904040523 12 72 4.8 8.0 0.03 1.04 0.99 97
20260904035531 12 61 4.8 8.0 0.03 1.04 0.99 97
20260904034521 12 87 6.4 9.7 0.08 1.04 0.99 97
20260904033528 12 90 6.4 11.3 0.15 1.04 0.99 96
20260904032557 12 111 6.4 11.3 0.18 1.02 0.97 96
20260904031527 12 127 8.0 11.3 0.18 1.02 0.97 96
20260904030536 12 125 8.0 11.3 0.18 1.02 0.97 96
20260904025543 13 113 9.7 14.5 0.18 1.02 0.97 95
20260904024531 13 124 11.3 20.9 0.13 0.97 0.91 95
20260904023520 13 126 6.4 11.3 0.05 0.89 0.84 93
20260904022528 13 130 6.4 8.0 0.00 0.84 0.79 91
20260904021556 13 127 6.4 8.0 0.00 0.84 0.79 91
20260904020608 13 128 6.4 9.7 0.03 0.84 0.79 91
20260904015556 13 129 4.8 8.0 0.03 0.84 0.79 90
20260904014523 13 114 6.4 9.7 0.03 0.84 0.79 90
20260904013551 13 119 8.0 9.7 0.03 0.84 0.79 87
20260904012538 14 121 6.4 11.3 0.03 0.84 0.79 88
20260904011527 14 110 6.4 11.3 0.03 0.84 0.79 87
20260904010537 15 105 9.7 11.3 0.03 0.81 0.76 91
20260904005525 15 85 6.4 8.0 0.03 0.81 0.76 92
20260904004532 15 82 8.0 9.7 0.03 0.84 0.76 91
20260904003521 15 69 4.8 6.4 0.03 0.86 0.76 91
20260904002529 14 118 3.2 4.8 0.03 0.86 0.76 93
20260904001519 14 73 6.4 9.7 0.03 0.86 0.76 92
20260904000528 14 101 8.0 11.3 0.03 0.84 0.74 89
20260903235540 15 81 8.0 11.3 0.05 0.84 0.74 88
20260903234524 15 68 8.0 9.7 0.08 0.84 0.74 86
20260903233532 15 77 6.4 8.0 0.10 0.84 0.74 86
20260903232523 15 83 8.0 9.7 0.10 0.84 0.74 88
20260903231530 13 89 4.8 6.4 0.10 0.84 0.74 93
20260903230520 13 123 3.2 4.8 0.08 1.07 0.71 92
20260903225527 13 172 4.8 8.0 0.10 1.14 0.69 91
20260903224536 14 205 8.0 11.3 0.13 1.17 0.66 89
20260903223524 14 174 6.4 9.7 0.23 1.19 0.64 86
20260903222532 14 184 3.2 6.4 0.25 1.22 0.64 88
20260903221217 12 100 3.2 3.2 0.25 1.22 0.64 92
20260903220033 12 110 4.8 6.4 0.25 1.22 0.64 91
20260903215024 12 174 8.0 12.9 0.15 1.14 0.53 91
20260903214030 12 170 12.9 16.1 0.08 1.07 0.46 90
20260903213020 13 171 9.7 14.5 0.00 0.99 0.38 87
20260903212028 14 181 12.9 20.9 0.00 1.02 0.38 79
20260903211056 13 170 6.4 11.3 0.00 1.02 0.38 79
20260903210026 14 191 8.0 12.9 0.00 1.02 0.38 78
20260903205033 14 199 12.9 20.9 0.00 1.04 0.38 77
20260903204043 14 198 12.9 17.7 0.00 1.04 0.38 78
20260903203030 15 185 12.9 19.3 0.00 1.04 0.38 79
20260903202020 15 142 12.9 17.7 0.00 1.04 0.38 79
20260903201027 15 122 12.9 19.3 0.00 1.04 0.38 84
20260903200036 15 152 11.3 17.7 0.00 1.04 0.38 85
20260903195024 15 134 12.9 19.3 0.00 1.04 0.38 84
20260903194053 15 144 12.9 16.1 0.00 1.04 0.38 83
20260903193021 15 122 16.1 27.4 0.00 1.07 0.38 81
20260903192108 15 150 12.9 24.1 0.00 1.07 0.38 81
20260903191117 15 130 16.1 27.4 0.00 1.09 0.38 81
20260903190026 15 119 16.1 22.5 0.00 1.09 0.38 83
20260903185033 15 125 14.5 20.9 0.00 1.14 0.38 86
20260903184024 15 107 14.5 17.7 0.00 1.17 0.38 87
20260903183030 15 106 12.9 17.7 0.00 1.27 0.38 88
20260903182020 15 132 16.1 22.5 0.03 1.35 0.38 90
20260903181028 15 118 12.9 19.3 0.10 1.40 0.38 91
20260903180055 14 102 14.5 24.1 0.15 1.45 0.38 90
20260903175024 14 129 14.5 19.3 0.18 1.45 0.38 91